User: anonymous   Login
Location: Unspecified
(0.0000°N, 0.0000°E)
Time: 12:33:15
(UTC+02:00)
Language:

Cosmos 2219 Rocket - Orbit

View from above orbital plane
View from above orbital plane
View from above satellite
View from above satellite

Ground track
Ground track

The orbit data is extracted from the following two-line orbital elements,

1 22220U 92076B   17206.60564691 -.00000190 +00000-0 -71269-4 0  9996
2 22220 071.0014 338.3792 0014260 222.1647 215.4011 14.16418621275883
Epoch (UTC): 25 July 2017 14:32:07
Eccentricity: 0.0014260
inclination: 71.0014°
perigee height: 827 km
apogee height: 848 km
right ascension of ascending node: 338.3792°
argument of perigee: 222.1647°
revolutions per day: 14.16418621
mean anomaly at epoch: 215.4011°
orbit number at epoch: 27588

The dashed part of the orbit path shows where the satellite is in the earth's shadow,  

DLR